This is the latest recevied weather packets stored in our database for station/object K6MBY. If no packets are shown the sender has not sent any weather packets the latest 10 day(s).
| Time | Temp. | Humidity | Pressure | Rain* | Wind** | Luminosity | Snow |
|---|---|---|---|---|---|---|---|
| 1777076265 | 16.67° C | 27% | 1020.8 hPa | 0 mm | - | 353 W/m² | - |
| 1777075961 | 16.11° C | 28% | 1020.7 hPa | 0 mm | - | 367 W/m² | - |
| 1777075657 | 16.11° C | 29% | 1021 hPa | 0 mm | - | 383 W/m² | - |
| 1777075352 | 16.11° C | 30% | 1020.8 hPa | 0 mm | - | 399 W/m² | - |
| 1777075049 | 16.67° C | 31% | 1021 hPa | 0 mm | - | 413 W/m² | - |
| 1777074744 | 16.67° C | 28% | 1021.1 hPa | 0 mm | - | 429 W/m² | - |
| 1777074440 | 16.67° C | 27% | 1021.1 hPa | 0 mm | - | 445 W/m² | - |
| 1777074137 | 16.11° C | 32% | 1021.2 hPa | 0 mm | - | 458 W/m² | - |
| 1777073833 | 16.11° C | 30% | 1021.2 hPa | 0 mm | - | 472 W/m² | - |
| 1777073528 | 16.11° C | 32% | 1021.4 hPa | 0 mm | - | 488 W/m² | - |
| 1777073224 | 15.56° C | 31% | 1021.5 hPa | 0 mm | - | 505 W/m² | - |
| 1777072920 | 16.11° C | 33% | 1021.6 hPa | 0 mm | - | 520 W/m² | - |
| 1777072616 | 16.11° C | 35% | 1021.5 hPa | 0 mm | - | 533 W/m² | - |
| 1777072310 | 15.56° C | 32% | 1021.8 hPa | 0 mm | - | 547 W/m² | - |
| 1777072004 | 15.56° C | 34% | 1021.8 hPa | 0 mm | - | 560 W/m² | - |
| 1777071701 | 15.56° C | 34% | 1021.8 hPa | 0 mm | - | 573 W/m² | - |
| 1777071397 | 15.56° C | 41% | 1021.8 hPa | 0 mm | - | 585 W/m² | - |
| 1777071092 | 15.56° C | 35% | 1022.2 hPa | 0 mm | - | 597 W/m² | - |
| 1777070788 | 15.56° C | 38% | 1022.1 hPa | 0 mm | - | 606 W/m² | - |
| 1777070487 | 15.56° C | 38% | 1022.1 hPa | 0 mm | - | 619 W/m² | - |
| 1777070185 | 15.56° C | 37% | 1022.2 hPa | 0 mm | - | 632 W/m² | - |
| 1777069880 | 15.56° C | 33% | 1022.2 hPa | 0 mm | - | 642 W/m² | - |
| 1777069579 | 15.56° C | 31% | 1022.3 hPa | 0 mm | - | 653 W/m² | - |
| 1777069275 | 15° C | 38% | 1022.4 hPa | 0 mm | - | 664 W/m² | - |
| 1777068972 | 15° C | 39% | 1022.4 hPa | 0 mm | - | 675 W/m² | - |
* Rain latest hour (hover to see other rain measurements)
** Current wind speed in m/s (hover to see current wind gust speed)